Starlink 4584

operational
NORAD ID: 53571 Int'l Des: 2022-101 Owner: SPXS Country: US Constellation: starlink
LEOCIRCULAR

About Starlink 4584

Description loading...

Live Position

Loading 3D Globe...

Upcoming Passes

Altitude History

Altitude vs Time

uPlot chart will show altitude changes over time

Two-Line Element Set

1 53571U 22101AW 25347.62881094 .00006312 00000-0 41421-3 0 9993
2 53571 53.2168 80.4105 0001367 84.7663 275.3485 15.08848804184145
Epoch: Dec 13, 2025 • Age: 17 hours

Current Status

Altitude 542.5 km
Velocity 7.59 km/s
Sub-Earth Point -9.50°S, 63.66°E
Launch Date Aug 19, 2022
Age 3.3 years
Type internet

Technical Details

Classification Payload
Mass 300.00 kg
Dry Mass 290.00 kg
Total Mass 300.00 kg
Length 0.20 m
Diameter 2.80 m
Span 9.00 m
Shape Box + pan
Manufacturer SPXS
Bus Type Starlink
Phase Status In Orbit
Owner/State SPXS/US

Large Constellations

Loading constellations...